Regional Weather Roundup
Issued by NWS

Current Version | Previous Version | Graphics & Text | Print | Product List | Glossary On
Versions: 1 2 3 4 5 6 7 8 9 10 11 12 13 14 15 16 17 18 19 20 21 22 23 24 25 26 27
000
ASUS44 KBMX 030510
RWRAL

ALABAMA REGIONAL WEATHER ROUNDUP
NATIONAL WEATHER SERVICE BIRMINGHAM AL
1200 AM CDT SUN JUL 03 2022

NOTE: "FAIR" INDICATES FEW OR NO CLOUDS BELOW 12,000 FEET
WITH NO SIGNIFICANT WEATHER AND/OR OBSTRUCTIONS TO VISIBILITY.

THE REMARK "TC" DENOTES TEMPERATURE IN DEGREES CELSIUS.

ALZ001>011-014-016>018-020-030600-
NORTH ALABAMA

CITY           SKY/WX    TMP DP  RH WIND       PRES   REMARKS
MUSCLE SHOALS  PTCLDY    81  71  71 W7        30.01S
HUNTSVILLE     PTCLDY    77  74  90 SE5       30.02F
DECATUR        PTCLDY    74  73  97 CALM      30.02F
HALEYVILLE     FAIR      76  71  85 CALM      30.06F
GADSDEN        CLEAR     75  74  96 CALM      30.05R
$$

ALZ012-013-022-023-030>036-040>044-030600-
WEST CENTRAL ALABAMA

CITY           SKY/WX    TMP DP  RH WIND       PRES   REMARKS
TUSCALOOSA     PTCLDY    77  72  84 SE3       30.02F
DEMOPOLIS      MOCLDY    74  74 100 CALM      30.03S
$$

ALZ015-024>026-033>036-041>044-030600-
CENTRAL ALABAMA

CITY           SKY/WX    TMP DP  RH WIND       PRES   REMARKS
BIRMINGHAM     CLEAR     81  73  76 SW7       30.06S
MONTGOMERY     PTCLDY    75  72  90 CALM      30.04F
SHELBY CO ARPT PTCLDY    76  73  91 CALM      30.04F
MAXWELL AFB    MOCLDY    74  70  87 SE5       30.02F
GREENVILLE     NOT AVBL
SELMA          FAIR      75  75 100 CALM      30.03S
PRATTVILLE     MOCLDY    73  73 100 CALM      30.04S
BESSEMER       FAIR      74  73  97 CALM      30.05F
TALLADEGA      FAIR     N/A N/A N/A CALM      30.05F
PELL CITY      PTCLDY    79  73  83 CALM      30.04F
SYLACAUGA      CLOUDY    74  72  92 CALM      30.06R
$$

ALZ019-021-028-029-037-038-045>048-030600-
EAST CENTRAL ALABAMA

CITY           SKY/WX    TMP DP  RH WIND       PRES   REMARKS
ANNISTON       CLEAR     76  72  87 W6        30.05F
ALEXANDER CITY CLEAR     74  74  99 CALM      30.06S
AUBURN         CLEAR     76  71  85 CALM      30.08F
$$

ALZ051>064-030600-
SOUTHWEST ALABAMA

CITY           SKY/WX    TMP DP  RH WIND       PRES   REMARKS
MOBILE         MOCLDY    79  75  87 SE3       30.04F
BROOKLEY FIELD MOCLDY    82  77  84 SE7       30.04F HX  90
EVERGREEN      PTCLDY    75  73  93 CALM      30.05F
$$

ALZ049-050-065>069-030600-
SOUTHEAST ALABAMA

CITY           SKY/WX    TMP DP  RH WIND       PRES   REMARKS
DOTHAN         PTCLDY    76  76 100 S5        30.09F
OZARK          PTCLDY    74  74  99 CALM      30.05F
TROY           PTCLDY    74  70  87 CALM      30.06F
EUFAULA        FAIR      76  73  91 CALM      30.06F
$$



USA.gov is the U.S. government's official web portal to all federal, state and local government web resources and services.